| time (UTC) | temp F | wind direction | speed MPH | gust MPH | rain 1hr in | rain 24hr in | rain mn in | humidity % | barometer mb |
| 20260831121024 | 70 | 148 | 1.0 | 1.0 | 0.00 | 0.00 | 0.00 | 92 | 1021.2 |
| 20260831120527 | 70 | 110 | 1.0 | 2.0 | 0.00 | 0.00 | 0.00 | 92 | 1021.2 |
| 20260831120051 | 70 | 113 | 1.0 | 2.0 | 0.00 | 0.00 | 0.00 | 92 | 1021.3 |
| 20260831115531 | 70 | 0 | 0.0 | 1.0 | 0.00 | 0.00 | 0.00 | 92 | 1021.2 |
| 20260831115028 | 70 | 0 | 0.0 | 1.0 | 0.00 | 0.00 | 0.00 | 92 | 1021.2 |
| 20260831114548 | 69 | 113 | 0.0 | 2.0 | 0.00 | 0.00 | 0.00 | 92 | 1021.2 |
| 20260831114025 | 69 | 113 | 1.0 | 2.0 | 0.00 | 0.00 | 0.00 | 92 | 1021.2 |
| 20260831113529 | 69 | 122 | 0.0 | 2.0 | 0.00 | 0.00 | 0.00 | 91 | 1021.0 |
| 20260831113101 | 69 | 122 | 0.0 | 0.0 | 0.00 | 0.00 | 0.00 | 91 | 1021.1 |
| 20260831112525 | 69 | 0 | 0.0 | 2.0 | 0.00 | 0.00 | 0.00 | 91 | 1021.0 |
| 20260831112025 | 69 | 0 | 0.0 | 2.0 | 0.00 | 0.00 | 0.00 | 91 | 1021.0 |
| 20260831111608 | 69 | 0 | 0.0 | 1.0 | 0.00 | 0.00 | 0.00 | 91 | 1020.9 |
| 20260831111024 | 69 | 122 | 0.0 | 1.0 | 0.00 | 0.00 | 0.00 | 91 | 1020.8 |
| 20260831110529 | 70 | 0 | 0.0 | 0.0 | 0.00 | 0.00 | 0.00 | 91 | 1020.7 |
| 20260831110050 | 70 | 0 | 0.0 | 2.0 | 0.00 | 0.00 | 0.00 | 91 | 1020.6 |
| 20260831105526 | 70 | 0 | 0.0 | 2.0 | 0.00 | 0.00 | 0.00 | 91 | 1020.6 |
| 20260831105025 | 70 | 0 | 1.0 | 2.0 | 0.00 | 0.00 | 0.00 | 91 | 1020.6 |
| 20260831104548 | 70 | 0 | 0.0 | 0.0 | 0.00 | 0.00 | 0.00 | 91 | 1020.5 |
| 20260831104026 | 70 | 0 | 0.0 | 2.0 | 0.00 | 0.00 | 0.00 | 91 | 1020.4 |
| 20260831103524 | 70 | 0 | 0.0 | 2.0 | 0.00 | 0.00 | 0.00 | 91 | 1020.4 |
| 20260831103048 | 70 | 0 | 0.0 | 2.0 | 0.00 | 0.00 | 0.00 | 91 | 1020.4 |
| 20260831102525 | 70 | 0 | 0.0 | 2.0 | 0.00 | 0.00 | 0.00 | 91 | 1020.4 |
| 20260831102025 | 70 | 8 | 0.0 | 2.0 | 0.00 | 0.00 | 0.00 | 91 | 1020.4 |
| 20260831101556 | 70 | 0 | 0.0 | 2.0 | 0.00 | 0.00 | 0.00 | 91 | 1020.4 |
| 20260831101024 | 70 | 0 | 0.0 | 2.0 | 0.00 | 0.00 | 0.00 | 91 | 1020.3 |
| 20260831100525 | 70 | 0 | 0.0 | 2.0 | 0.00 | 0.00 | 0.00 | 91 | 1020.2 |
| 20260831100049 | 70 | 0 | 0.0 | 1.0 | 0.00 | 0.00 | 0.00 | 91 | 1020.2 |
| 20260831095529 | 70 | 0 | 0.0 | 2.0 | 0.00 | 0.00 | 0.00 | 91 | 1020.2 |
| 20260831095025 | 70 | 0 | 0.0 | 2.0 | 0.00 | 0.00 | 0.00 | 91 | 1020.2 |
| 20260831094547 | 70 | 8 | 0.0 | 2.0 | 0.00 | 0.00 | 0.00 | 91 | 1020.2 |
| 20260831094025 | 71 | 0 | 0.0 | 2.0 | 0.00 | 0.00 | 0.00 | 91 | 1020.2 |
| 20260831093528 | 71 | 0 | 0.0 | 2.0 | 0.00 | 0.00 | 0.00 | 91 | 1020.0 |
| 20260831093044 | 71 | 0 | 0.0 | 0.0 | 0.00 | 0.00 | 0.00 | 91 | 1020.0 |
| 20260831092525 | 71 | 0 | 0.0 | 0.0 | 0.00 | 0.00 | 0.00 | 91 | 1020.0 |
| 20260831092025 | 71 | 0 | 0.0 | 2.0 | 0.00 | 0.00 | 0.00 | 91 | 1019.8 |
| 20260831091558 | 71 | 0 | 0.0 | 2.0 | 0.00 | 0.00 | 0.00 | 91 | 1019.8 |
| 20260831091030 | 71 | 173 | 0.0 | 2.0 | 0.00 | 0.00 | 0.00 | 91 | 1019.6 |
| 20260831090525 | 71 | 117 | 0.0 | 3.0 | 0.00 | 0.00 | 0.00 | 91 | 1019.7 |
| 20260831090049 | 71 | 127 | 0.0 | 3.0 | 0.00 | 0.00 | 0.00 | 91 | 1019.7 |
| 20260831085526 | 71 | 140 | 0.0 | 3.0 | 0.00 | 0.00 | 0.00 | 91 | 1019.6 |
| 20260831085025 | 71 | 0 | 1.0 | 3.0 | 0.00 | 0.00 | 0.00 | 91 | 1019.7 |
| 20260831084547 | 71 | 0 | 1.0 | 2.0 | 0.00 | 0.00 | 0.00 | 91 | 1019.7 |
| 20260831084029 | 71 | 119 | 0.0 | 2.0 | 0.00 | 0.00 | 0.00 | 91 | 1019.7 |
| 20260831083525 | 71 | 0 | 0.0 | 0.0 | 0.00 | 0.00 | 0.00 | 91 | 1019.7 |
| 20260831083050 | 71 | 0 | 0.0 | 0.0 | 0.00 | 0.00 | 0.00 | 91 | 1019.7 |
| 20260831082523 | 71 | 0 | 0.0 | 0.0 | 0.00 | 0.00 | 0.00 | 91 | 1019.7 |
| 20260831082023 | 71 | 0 | 0.0 | 0.0 | 0.00 | 0.00 | 0.00 | 91 | 1019.6 |
| 20260831081558 | 71 | 0 | 0.0 | 0.0 | 0.00 | 0.00 | 0.00 | 91 | 1019.6 |
| 20260831081025 | 71 | 0 | 0.0 | 0.0 | 0.00 | 0.00 | 0.00 | 91 | 1019.6 |
| 20260831080524 | 71 | 0 | 0.0 | 0.0 | 0.00 | 0.00 | 0.00 | 91 | 1019.7 |
| 20260831080115 | 71 | 0 | 0.0 | 0.0 | 0.00 | 0.00 | 0.00 | 91 | 1019.6 |
| 20260831075527 | 72 | 0 | 0.0 | 0.0 | 0.00 | 0.00 | 0.00 | 91 | 1019.6 |
| 20260831075024 | 72 | 0 | 0.0 | 0.0 | 0.00 | 0.00 | 0.00 | 91 | 1019.6 |
| 20260831074551 | 72 | 0 | 0.0 | 2.0 | 0.00 | 0.00 | 0.00 | 91 | 1019.5 |
| 20260831074028 | 72 | 0 | 0.0 | 2.0 | 0.00 | 0.00 | 0.00 | 91 | 1019.5 |
| 20260831073527 | 72 | 0 | 0.0 | 2.0 | 0.00 | 0.00 | 0.00 | 90 | 1019.5 |
| 20260831073111 | 72 | 115 | 1.0 | 2.0 | 0.00 | 0.00 | 0.00 | 90 | 1019.6 |
| 20260831072526 | 72 | 115 | 0.0 | 1.0 | 0.00 | 0.00 | 0.00 | 90 | 1019.6 |
| 20260831072025 | 72 | 0 | 0.0 | 2.0 | 0.00 | 0.00 | 0.00 | 90 | 1019.6 |
| 20260831071553 | 72 | 0 | 0.0 | 2.0 | 0.00 | 0.00 | 0.00 | 90 | 1019.7 |
| 20260831071027 | 72 | 0 | 0.0 | 2.0 | 0.00 | 0.00 | 0.00 | 90 | 1019.7 |
| 20260831070529 | 72 | 115 | 0.0 | 1.0 | 0.00 | 0.00 | 0.00 | 90 | 1019.7 |
| 20260831070050 | 72 | 0 | 0.0 | 0.0 | 0.00 | 0.00 | 0.00 | 90 | 1019.7 |
| 20260831065525 | 72 | 0 | 0.0 | 0.0 | 0.00 | 0.00 | 0.00 | 90 | 1019.8 |
| 20260831065025 | 72 | 0 | 0.0 | 0.0 | 0.00 | 0.00 | 0.00 | 90 | 1019.8 |
| 20260831064554 | 73 | 0 | 0.0 | 0.0 | 0.00 | 0.00 | 0.00 | 90 | 1019.8 |
| 20260831064026 | 73 | 0 | 0.0 | 0.0 | 0.00 | 0.00 | 0.00 | 90 | 1019.8 |
| 20260831063527 | 73 | 0 | 0.0 | 0.0 | 0.00 | 0.00 | 0.00 | 90 | 1019.8 |
| 20260831063048 | 73 | 0 | 0.0 | 0.0 | 0.00 | 0.00 | 0.00 | 90 | 1019.9 |
| 20260831062529 | 73 | 0 | 0.0 | 0.0 | 0.00 | 0.00 | 0.00 | 90 | 1019.9 |
| 20260831062028 | 73 | 0 | 0.0 | 1.0 | 0.00 | 0.00 | 0.00 | 90 | 1019.9 |
| 20260831061548 | 73 | 0 | 0.0 | 2.0 | 0.00 | 0.00 | 0.00 | 90 | 1019.8 |
| 20260831061033 | 73 | 0 | 0.0 | 2.0 | 0.00 | 0.00 | 0.00 | 90 | 1019.9 |
| 20260831060525 | 73 | 113 | 1.0 | 2.0 | 0.00 | 0.00 | 0.00 | 90 | 1019.9 |
| 20260831060053 | 73 | 121 | 0.0 | 2.0 | 0.00 | 0.00 | 0.00 | 90 | 1019.9 |
| 20260831055524 | 73 | 119 | 1.0 | 2.0 | 0.00 | 0.00 | 0.00 | 90 | 1019.9 |
| 20260831055024 | 73 | 152 | 1.0 | 2.0 | 0.00 | 0.00 | 0.00 | 90 | 1019.9 |
| 20260831054555 | 73 | 137 | 0.0 | 2.0 | 0.00 | 0.00 | 0.00 | 89 | 1019.9 |
| 20260831054027 | 74 | 0 | 0.0 | 2.0 | 0.00 | 0.00 | 0.00 | 89 | 1019.8 |
| 20260831053523 | 74 | 125 | 0.0 | 2.0 | 0.00 | 0.00 | 0.00 | 90 | 1019.9 |
| 20260831053049 | 74 | 125 | 0.0 | 2.0 | 0.00 | 0.00 | 0.00 | 89 | 1020.0 |
| 20260831052523 | 74 | 125 | 0.0 | 1.0 | 0.00 | 0.00 | 0.00 | 89 | 1020.0 |
| 20260831052025 | 74 | 125 | 0.0 | 1.0 | 0.00 | 0.00 | 0.00 | 89 | 1019.9 |
| 20260831051553 | 74 | 0 | 0.0 | 0.0 | 0.00 | 0.00 | 0.00 | 89 | 1019.8 |
| 20260831051023 | 74 | 0 | 0.0 | 1.0 | 0.00 | 0.00 | 0.00 | 89 | 1019.8 |
| 20260831050527 | 74 | 0 | 0.0 | 2.0 | 0.00 | 0.00 | 0.00 | 89 | 1019.8 |
| 20260831050051 | 74 | 125 | 0.0 | 2.0 | 0.00 | 0.00 | 0.00 | 89 | 1019.8 |
| 20260831045524 | 74 | 0 | 0.0 | 0.0 | 0.00 | 0.00 | 0.00 | 88 | 1019.8 |
| 20260831045025 | 74 | 0 | 0.0 | 0.0 | 0.00 | 0.00 | 0.00 | 88 | 1019.8 |
| 20260831044557 | 75 | 0 | 0.0 | 0.0 | 0.00 | 0.00 | 0.00 | 88 | 1019.9 |
| 20260831044025 | 75 | 0 | 0.0 | 0.0 | 0.00 | 0.00 | 0.00 | 88 | 1019.9 |
| 20260831043524 | 75 | 0 | 0.0 | 0.0 | 0.00 | 0.00 | 0.00 | 88 | 1019.9 |
| 20260831043050 | 75 | 0 | 0.0 | 0.0 | 0.00 | 0.00 | 0.00 | 88 | 1019.8 |
| 20260831042525 | 75 | 0 | 0.0 | 0.0 | 0.00 | 0.00 | 0.00 | 88 | 1019.8 |
| 20260831042025 | 75 | 0 | 0.0 | 0.0 | 0.00 | 0.00 | 0.00 | 88 | 1019.9 |
| 20260831041606 | 75 | 0 | 0.0 | 0.0 | 0.00 | 0.00 | 0.00 | 88 | 1019.8 |
| 20260831041029 | 75 | 0 | 0.0 | 1.0 | 0.00 | 0.00 | 0.00 | 88 | 1019.8 |
| 20260831040524 | 76 | 0 | 0.0 | 2.0 | 0.00 | 0.00 | 0.00 | 88 | 1019.8 |
| 20260831040048 | 76 | 175 | 0.0 | 2.0 | 0.00 | 0.00 | 0.00 | 87 | 1020.0 |
| 20260831035525 | 76 | 175 | 0.0 | 2.0 | 0.00 | 0.00 | 0.00 | 87 | 1019.9 |
| 20260831035026 | 76 | 0 | 0.0 | 2.0 | 0.00 | 0.00 | 0.00 | 86 | 1020.0 |
| 20260831034551 | 76 | 0 | 0.0 | 2.0 | 0.00 | 0.00 | 0.00 | 86 | 1019.9 |
| 20260831034029 | 76 | 0 | 0.0 | 0.0 | 0.00 | 0.00 | 0.00 | 86 | 1020.0 |
| 20260831033524 | 76 | 0 | 0.0 | 2.0 | 0.00 | 0.00 | 0.00 | 86 | 1020.0 |
| 20260831033047 | 76 | 0 | 0.0 | 2.0 | 0.00 | 0.00 | 0.00 | 86 | 1020.0 |
| 20260831032523 | 76 | 175 | 0.0 | 2.0 | 0.00 | 0.00 | 0.00 | 86 | 1020.0 |
| 20260831032024 | 77 | 0 | 0.0 | 2.0 | 0.00 | 0.00 | 0.00 | 86 | 1019.8 |
| 20260831031550 | 77 | 0 | 0.0 | 2.0 | 0.00 | 0.00 | 0.00 | 85 | 1019.8 |
| 20260831031029 | 77 | 0 | 0.0 | 2.0 | 0.00 | 0.00 | 0.00 | 85 | 1020.0 |
| 20260831030525 | 77 | 131 | 0.0 | 2.0 | 0.00 | 0.00 | 0.00 | 85 | 1020.0 |
| 20260831030055 | 77 | 160 | 0.0 | 2.0 | 0.00 | 0.00 | 0.00 | 84 | 1020.1 |
| 20260831025525 | 77 | 0 | 0.0 | 0.0 | 0.00 | 0.00 | 0.00 | 84 | 1020.0 |
| 20260831025028 | 77 | 0 | 0.0 | 2.0 | 0.00 | 0.00 | 0.00 | 84 | 1020.0 |
| 20260831024548 | 77 | 0 | 0.0 | 2.0 | 0.00 | 0.00 | 0.00 | 84 | 1020.0 |
| 20260831024025 | 77 | 93 | 0.0 | 2.0 | 0.00 | 0.00 | 0.00 | 84 | 1020.0 |
| 20260831023524 | 77 | 0 | 0.0 | 2.0 | 0.00 | 0.00 | 0.00 | 84 | 1020.0 |
| 20260831023053 | 77 | 93 | 0.0 | 2.0 | 0.00 | 0.00 | 0.00 | 84 | 1020.0 |
| 20260831022532 | 77 | 0 | 0.0 | 1.0 | 0.00 | 0.00 | 0.00 | 84 | 1020.0 |
| 20260831022024 | 77 | 0 | 0.0 | 2.0 | 0.00 | 0.00 | 0.00 | 84 | 1020.0 |
| 20260831021550 | 77 | 0 | 0.0 | 2.0 | 0.00 | 0.00 | 0.00 | 84 | 1019.9 |
| 20260831021024 | 77 | 0 | 0.0 | 2.0 | 0.00 | 0.00 | 0.00 | 84 | 1019.8 |
| 20260831020526 | 78 | 0 | 0.0 | 0.0 | 0.00 | 0.00 | 0.00 | 83 | 1019.8 |
| 20260831020050 | 78 | 0 | 0.0 | 0.0 | 0.00 | 0.00 | 0.00 | 83 | 1019.7 |
| 20260831015526 | 78 | 0 | 0.0 | 0.0 | 0.00 | 0.00 | 0.00 | 82 | 1019.6 |
| 20260831015027 | 78 | 0 | 0.0 | 0.0 | 0.00 | 0.00 | 0.00 | 82 | 1019.5 |
| 20260831014547 | 78 | 0 | 0.0 | 1.0 | 0.00 | 0.00 | 0.00 | 82 | 1019.5 |
| 20260831014025 | 79 | 0 | 0.0 | 2.0 | 0.00 | 0.00 | 0.00 | 82 | 1019.4 |
| 20260831013529 | 79 | 0 | 0.0 | 2.0 | 0.00 | 0.00 | 0.00 | 81 | 1019.3 |
| 20260831013055 | 79 | 0 | 0.0 | 0.0 | 0.00 | 0.00 | 0.00 | 81 | 1019.2 |
| 20260831012523 | 79 | 0 | 0.0 | 0.0 | 0.00 | 0.00 | 0.00 | 80 | 1019.1 |
| 20260831012028 | 80 | 0 | 0.0 | 0.0 | 0.00 | 0.00 | 0.00 | 79 | 1019.2 |
| 20260831011551 | 80 | 0 | 0.0 | 0.0 | 0.00 | 0.00 | 0.00 | 78 | 1019.1 |
| 20260831011025 | 80 | 0 | 0.0 | 2.0 | 0.00 | 0.00 | 0.00 | 78 | 1019.0 |
| 20260831010526 | 81 | 0 | 0.0 | 2.0 | 0.00 | 0.00 | 0.00 | 76 | 1019.0 |
| 20260831010122 | 81 | 0 | 0.0 | 2.0 | 0.00 | 0.00 | 0.00 | 75 | 1019.0 |
| 20260831005528 | 82 | 93 | 1.0 | 2.0 | 0.00 | 0.00 | 0.00 | 74 | 1018.9 |
| 20260831005029 | 82 | 93 | 1.0 | 2.0 | 0.00 | 0.00 | 0.00 | 73 | 1019.0 |
| 20260831004556 | 82 | 93 | 1.0 | 1.0 | 0.00 | 0.00 | 0.00 | 72 | 1018.9 |
| 20260831004028 | 83 | 93 | 1.0 | 2.0 | 0.00 | 0.00 | 0.00 | 71 | 1018.9 |
| 20260831003523 | 83 | 93 | 1.0 | 2.0 | 0.00 | 0.00 | 0.00 | 71 | 1018.8 |
| 20260831003103 | 84 | 88 | 1.0 | 2.0 | 0.00 | 0.00 | 0.00 | 70 | 1018.8 |
| 20260831002523 | 84 | 93 | 1.0 | 2.0 | 0.00 | 0.00 | 0.00 | 70 | 1018.7 |
| 20260831002025 | 84 | 91 | 1.0 | 2.0 | 0.00 | 0.00 | 0.00 | 69 | 1018.7 |
| 20260831001548 | 85 | 107 | 1.0 | 2.0 | 0.00 | 0.00 | 0.00 | 69 | 1018.6 |
| 20260831001028 | 85 | 100 | 2.0 | 2.0 | 0.00 | 0.00 | 0.00 | 68 | 1018.6 |
| 20260831000527 | 85 | 100 | 1.0 | 2.0 | 0.00 | 0.00 | 0.00 | 68 | 1018.7 |
| 20260831000049 | 86 | 102 | 1.0 | 2.0 | 0.00 | 0.00 | 0.00 | 67 | 1018.6 |
| 20260830235525 | 86 | 92 | 1.0 | 3.0 | 0.00 | 0.00 | 0.00 | 66 | 1018.7 |
| 20260830235025 | 87 | 94 | 2.0 | 3.0 | 0.00 | 0.00 | 0.00 | 64 | 1018.7 |
| 20260830234546 | 87 | 100 | 1.0 | 2.0 | 0.00 | 0.00 | 0.00 | 64 | 1018.6 |
| 20260830234027 | 88 | 102 | 1.0 | 4.0 | 0.00 | 0.00 | 0.00 | 64 | 1018.7 |
| 20260830233526 | 88 | 97 | 1.0 | 4.0 | 0.00 | 0.00 | 0.00 | 62 | 1018.7 |
| 20260830233049 | 88 | 86 | 1.0 | 3.0 | 0.00 | 0.00 | 0.00 | 61 | 1018.6 |
| 20260830232525 | 89 | 98 | 1.0 | 3.0 | 0.00 | 0.00 | 0.00 | 61 | 1018.7 |
| 20260830232025 | 89 | 92 | 1.0 | 2.0 | 0.00 | 0.00 | 0.00 | 60 | 1018.6 |
| 20260830231549 | 89 | 85 | 1.0 | 4.0 | 0.00 | 0.00 | 0.00 | 60 | 1018.6 |
| 20260830231025 | 90 | 87 | 1.0 | 4.0 | 0.00 | 0.00 | 0.00 | 59 | 1018.7 |
| 20260830230527 | 90 | 70 | 2.0 | 4.0 | 0.00 | 0.00 | 0.00 | 57 | 1018.6 |
| 20260830230048 | 90 | 85 | 1.0 | 3.0 | 0.00 | 0.00 | 0.00 | 57 | 1018.6 |
| 20260830225525 | 90 | 96 | 1.0 | 3.0 | 0.00 | 0.00 | 0.00 | 56 | 1018.6 |
| 20260830225026 | 91 | 91 | 1.0 | 3.0 | 0.00 | 0.00 | 0.00 | 56 | 1018.5 |
| 20260830224554 | 91 | 90 | 2.0 | 4.0 | 0.00 | 0.00 | 0.00 | 56 | 1018.5 |
| 20260830224025 | 91 | 96 | 1.0 | 5.0 | 0.00 | 0.00 | 0.00 | 55 | 1018.4 |
| 20260830223525 | 91 | 119 | 2.0 | 5.0 | 0.00 | 0.00 | 0.00 | 55 | 1018.6 |
| 20260830223048 | 91 | 99 | 2.0 | 5.0 | 0.00 | 0.00 | 0.00 | 53 | 1018.6 |
| 20260830222524 | 92 | 94 | 2.0 | 5.0 | 0.00 | 0.00 | 0.00 | 51 | 1018.6 |
| 20260830222025 | 92 | 126 | 2.0 | 5.0 | 0.00 | 0.00 | 0.00 | 51 | 1018.6 |
| 20260830221547 | 92 | 165 | 1.0 | 6.0 | 0.00 | 0.00 | 0.00 | 51 | 1018.6 |
| 20260830221027 | 92 | 103 | 3.0 | 6.0 | 0.00 | 0.00 | 0.00 | 52 | 1018.5 |
| 20260830220525 | 92 | 131 | 1.0 | 6.0 | 0.00 | 0.00 | 0.00 | 52 | 1018.6 |
| 20260830220048 | 92 | 114 | 1.0 | 4.0 | 0.00 | 0.00 | 0.00 | 55 | 1018.5 |
| 20260830215527 | 92 | 108 | 2.0 | 4.0 | 0.00 | 0.00 | 0.00 | 53 | 1018.6 |
| 20260830215025 | 92 | 104 | 0.0 | 7.0 | 0.00 | 0.00 | 0.00 | 52 | 1018.7 |
| 20260830214548 | 91 | 92 | 1.0 | 7.0 | 0.00 | 0.00 | 0.00 | 52 | 1018.7 |
| 20260830214025 | 91 | 106 | 2.0 | 5.0 | 0.00 | 0.00 | 0.00 | 52 | 1018.6 |
| 20260830213530 | 92 | 101 | 2.0 | 6.0 | 0.00 | 0.00 | 0.00 | 51 | 1018.7 |
| 20260830213051 | 92 | 108 | 1.0 | 6.0 | 0.00 | 0.00 | 0.00 | 52 | 1018.7 |
| 20260830212524 | 92 | 135 | 1.0 | 2.0 | 0.00 | 0.00 | 0.00 | 52 | 1018.7 |
| 20260830212025 | 91 | 233 | 0.0 | 3.0 | 0.00 | 0.00 | 0.00 | 53 | 1018.7 |
| 20260830211549 | 92 | 25 | 1.0 | 4.0 | 0.00 | 0.00 | 0.00 | 50 | 1018.8 |
| 20260830211025 | 92 | 279 | 1.0 | 4.0 | 0.00 | 0.00 | 0.00 | 51 | 1018.8 |
| 20260830210524 | 92 | 0 | 2.0 | 6.0 | 0.00 | 0.00 | 0.00 | 51 | 1018.8 |
| 20260830210046 | 92 | 120 | 3.0 | 6.0 | 0.00 | 0.00 | 0.00 | 50 | 1018.8 |
| 20260830205527 | 92 | 173 | 0.0 | 7.0 | 0.00 | 0.00 | 0.00 | 53 | 1018.8 |
| 20260830205029 | 91 | 324 | 0.0 | 7.0 | 0.00 | 0.00 | 0.00 | 53 | 1018.8 |
| 20260830204546 | 92 | 326 | 4.0 | 7.0 | 0.00 | 0.00 | 0.00 | 51 | 1018.9 |
| 20260830204027 | 92 | 143 | 1.0 | 3.0 | 0.00 | 0.00 | 0.00 | 53 | 1018.9 |
| 20260830203524 | 92 | 247 | 1.0 | 3.0 | 0.00 | 0.00 | 0.00 | 51 | 1019.1 |
| 20260830203052 | 92 | 309 | 1.0 | 4.0 | 0.00 | 0.00 | 0.00 | 52 | 1019.1 |
| 20260830202525 | 92 | 180 | 1.0 | 4.0 | 0.00 | 0.00 | 0.00 | 53 | 1019.2 |
| 20260830202028 | 91 | 0 | 1.0 | 3.0 | 0.00 | 0.00 | 0.00 | 55 | 1019.2 |
| 20260830201551 | 90 | 89 | 0.0 | 3.0 | 0.00 | 0.00 | 0.00 | 55 | 1019.3 |
| 20260830201030 | 90 | 112 | 1.0 | 3.0 | 0.00 | 0.00 | 0.00 | 53 | 1019.3 |
| 20260830200530 | 91 | 77 | 0.0 | 3.0 | 0.00 | 0.00 | 0.00 | 53 | 1019.4 |
| 20260830200049 | 92 | 109 | 1.0 | 6.0 | 0.00 | 0.00 | 0.00 | 53 | 1019.4 |
| 20260830195525 | 92 | 77 | 2.0 | 6.0 | 0.00 | 0.00 | 0.00 | 55 | 1019.6 |
| 20260830195027 | 92 | 69 | 2.0 | 7.0 | 0.00 | 0.00 | 0.00 | 54 | 1019.6 |
| 20260830194559 | 92 | 169 | 3.0 | 7.0 | 0.00 | 0.00 | 0.00 | 55 | 1019.6 |
| 20260830194024 | 92 | 138 | 2.0 | 6.0 | 0.00 | 0.00 | 0.00 | 54 | 1019.7 |
| 20260830193525 | 92 | 84 | 3.0 | 7.0 | 0.00 | 0.00 | 0.00 | 53 | 1019.8 |
| 20260830193053 | 92 | 118 | 4.0 | 7.0 | 0.00 | 0.00 | 0.00 | 54 | 1019.8 |
| 20260830192525 | 92 | 88 | 3.0 | 7.0 | 0.00 | 0.00 | 0.00 | 55 | 1020.0 |
| 20260830192024 | 91 | 80 | 2.0 | 7.0 | 0.00 | 0.00 | 0.00 | 58 | 1020.2 |
| 20260830191548 | 90 | 88 | 3.0 | 7.0 | 0.00 | 0.00 | 0.00 | 57 | 1020.2 |
| 20260830191026 | 90 | 252 | 2.0 | 6.0 | 0.00 | 0.00 | 0.00 | 56 | 1020.2 |
| 20260830190527 | 91 | 173 | 2.0 | 4.0 | 0.00 | 0.00 | 0.00 | 55 | 1020.3 |
| 20260830190048 | 91 | 108 | 1.0 | 5.0 | 0.00 | 0.00 | 0.00 | 59 | 1020.4 |
| 20260830185525 | 90 | 133 | 1.0 | 7.0 | 0.00 | 0.00 | 0.00 | 60 | 1020.5 |
| 20260830185027 | 90 | 121 | 1.0 | 7.0 | 0.00 | 0.00 | 0.00 | 60 | 1020.5 |
| 20260830184551 | 90 | 111 | 2.0 | 7.0 | 0.00 | 0.00 | 0.00 | 57 | 1020.5 |
| 20260830184027 | 90 | 262 | 1.0 | 8.0 | 0.00 | 0.00 | 0.00 | 57 | 1020.6 |
| 20260830183523 | 90 | 104 | 2.0 | 9.0 | 0.00 | 0.00 | 0.00 | 56 | 1020.8 |
| 20260830183049 | 91 | 95 | 4.0 | 9.0 | 0.00 | 0.00 | 0.00 | 57 | 1020.8 |
| 20260830182526 | 91 | 0 | 1.0 | 6.0 | 0.00 | 0.00 | 0.00 | 57 | 1020.9 |
| 20260830182028 | 90 | 121 | 2.0 | 6.0 | 0.00 | 0.00 | 0.00 | 58 | 1021.0 |
| 20260830181548 | 90 | 0 | 1.0 | 5.0 | 0.00 | 0.00 | 0.00 | 60 | 1021.0 |
| 20260830181028 | 89 | 144 | 2.0 | 7.0 | 0.00 | 0.00 | 0.00 | 60 | 1021.1 |
| 20260830180531 | 89 | 189 | 1.0 | 7.0 | 0.00 | 0.00 | 0.00 | 60 | 1021.1 |
| 20260830180046 | 90 | 98 | 3.0 | 7.0 | 0.00 | 0.00 | 0.00 | 61 | 1021.2 |
| 20260830175524 | 90 | 110 | 2.0 | 6.0 | 0.00 | 0.00 | 0.00 | 62 | 1021.3 |
| 20260830175025 | 89 | 125 | 3.0 | 6.0 | 0.00 | 0.00 | 0.00 | 63 | 1021.3 |
| 20260830174609 | 88 | 169 | 2.0 | 7.0 | 0.00 | 0.00 | 0.00 | 63 | 1021.3 |
| 20260830174025 | 87 | 102 | 2.0 | 7.0 | 0.00 | 0.00 | 0.00 | 64 | 1021.5 |
| 20260830173525 | 86 | 103 | 3.0 | 6.0 | 0.00 | 0.00 | 0.00 | 64 | 1021.5 |
| 20260830173048 | 86 | 141 | 2.0 | 5.0 | 0.00 | 0.00 | 0.00 | 64 | 1021.5 |
| 20260830172526 | 87 | 115 | 1.0 | 5.0 | 0.00 | 0.00 | 0.00 | 64 | 1021.5 |
| 20260830172023 | 87 | 83 | 1.0 | 4.0 | 0.00 | 0.00 | 0.00 | 65 | 1021.7 |
| 20260830171600 | 87 | 101 | 1.0 | 4.0 | 0.00 | 0.00 | 0.00 | 66 | 1021.8 |
| 20260830171026 | 86 | 108 | 2.0 | 5.0 | 0.00 | 0.00 | 0.00 | 65 | 1021.9 |
| 20260830170528 | 87 | 281 | 1.0 | 8.0 | 0.00 | 0.00 | 0.00 | 63 | 1022.0 |
| 20260830170050 | 87 | 246 | 2.0 | 8.0 | 0.00 | 0.00 | 0.00 | 64 | 1022.0 |
| 20260830165526 | 87 | 141 | 3.0 | 7.0 | 0.00 | 0.00 | 0.00 | 65 | 1022.0 |
| 20260830165027 | 87 | 127 | 2.0 | 6.0 | 0.00 | 0.00 | 0.00 | 66 | 1022.0 |
| 20260830164543 | 86 | 295 | 2.0 | 8.0 | 0.00 | 0.00 | 0.00 | 66 | 1022.2 |
| 20260830164027 | 86 | 17 | 3.0 | 8.0 | 0.00 | 0.00 | 0.00 | 64 | 1022.2 |
| 20260830163525 | 87 | 90 | 3.0 | 8.0 | 0.00 | 0.00 | 0.00 | 64 | 1022.1 |
| 20260830163055 | 87 | 160 | 3.0 | 6.0 | 0.00 | 0.00 | 0.00 | 66 | 1022.2 |
| 20260830162525 | 86 | 306 | 2.0 | 6.0 | 0.00 | 0.00 | 0.00 | 68 | 1022.3 |
| 20260830162026 | 85 | 110 | 2.0 | 5.0 | 0.00 | 0.00 | 0.00 | 69 | 1022.3 |
| 20260830161604 | 85 | 114 | 1.0 | 7.0 | 0.00 | 0.00 | 0.00 | 71 | 1022.3 |
| 20260830161024 | 85 | 83 | 2.0 | 8.0 | 0.00 | 0.00 | 0.00 | 70 | 1022.3 |
| 20260830160524 | 85 | 103 | 5.0 | 8.0 | 0.00 | 0.00 | 0.00 | 69 | 1022.5 |
| 20260830160048 | 86 | 215 | 2.0 | 8.0 | 0.00 | 0.00 | 0.00 | 67 | 1022.5 |
| 20260830155531 | 87 | 96 | 4.0 | 7.0 | 0.00 | 0.00 | 0.00 | 70 | 1022.5 |
| 20260830155031 | 86 | 145 | 2.0 | 7.0 | 0.00 | 0.00 | 0.00 | 69 | 1022.5 |
| 20260830154541 | 86 | 158 | 3.0 | 9.0 | 0.00 | 0.00 | 0.00 | 70 | 1022.5 |
| 20260830154026 | 85 | 156 | 3.0 | 9.0 | 0.00 | 0.00 | 0.00 | 71 | 1022.4 |
| 20260830153525 | 85 | 112 | 3.0 | 9.0 | 0.00 | 0.00 | 0.00 | 72 | 1022.4 |
| 20260830153049 | 85 | 173 | 3.0 | 9.0 | 0.00 | 0.00 | 0.00 | 71 | 1022.5 |
| 20260830152526 | 85 | 139 | 2.0 | 9.0 | 0.00 | 0.00 | 0.00 | 70 | 1022.5 |
| 20260830152025 | 85 | 156 | 4.0 | 9.0 | 0.00 | 0.00 | 0.00 | 72 | 1022.5 |
| 20260830151555 | 84 | 152 | 4.0 | 7.0 | 0.00 | 0.00 | 0.00 | 73 | 1022.4 |
| 20260830151026 | 84 | 129 | 3.0 | 7.0 | 0.00 | 0.00 | 0.00 | 74 | 1022.5 |
| 20260830150526 | 83 | 104 | 3.0 | 7.0 | 0.00 | 0.00 | 0.00 | 77 | 1022.6 |
| 20260830150049 | 82 | 146 | 3.0 | 7.0 | 0.00 | 0.00 | 0.00 | 77 | 1022.6 |
| 20260830145529 | 82 | 93 | 4.0 | 8.0 | 0.00 | 0.00 | 0.00 | 77 | 1022.6 |
| 20260830145028 | 82 | 121 | 3.0 | 7.0 | 0.00 | 0.00 | 0.00 | 77 | 1022.6 |
| 20260830144553 | 82 | 167 | 3.0 | 7.0 | 0.00 | 0.00 | 0.00 | 76 | 1022.6 |
| 20260830144024 | 82 | 101 | 2.0 | 5.0 | 0.00 | 0.00 | 0.00 | 78 | 1022.6 |
| 20260830143524 | 82 | 108 | 1.0 | 5.0 | 0.00 | 0.00 | 0.00 | 79 | 1022.6 |
| 20260830143049 | 81 | 154 | 2.0 | 5.0 | 0.00 | 0.00 | 0.00 | 78 | 1022.5 |
| 20260830142525 | 81 | 83 | 1.0 | 5.0 | 0.00 | 0.00 | 0.00 | 79 | 1022.5 |
| 20260830142028 | 81 | 155 | 3.0 | 5.0 | 0.00 | 0.00 | 0.00 | 80 | 1022.5 |
| 20260830141547 | 80 | 128 | 2.0 | 7.0 | 0.00 | 0.00 | 0.00 | 81 | 1022.5 |
| 20260830141029 | 79 | 125 | 3.0 | 7.0 | 0.00 | 0.00 | 0.00 | 82 | 1022.5 |
| 20260830140526 | 79 | 270 | 2.0 | 5.0 | 0.00 | 0.00 | 0.00 | 83 | 1022.5 |
| 20260830140109 | 79 | 173 | 2.0 | 5.0 | 0.00 | 0.00 | 0.00 | 84 | 1022.5 |
| 20260830135527 | 78 | 254 | 3.0 | 5.0 | 0.00 | 0.00 | 0.00 | 85 | 1022.5 |
| 20260830135025 | 78 | 162 | 2.0 | 6.0 | 0.00 | 0.00 | 0.00 | 85 | 1022.4 |
| 20260830134551 | 77 | 108 | 2.0 | 7.0 | 0.00 | 0.00 | 0.00 | 86 | 1022.4 |
| 20260830134024 | 77 | 200 | 2.0 | 7.0 | 0.00 | 0.00 | 0.00 | 88 | 1022.4 |
| 20260830133525 | 76 | 175 | 3.0 | 7.0 | 0.00 | 0.00 | 0.00 | 88 | 1022.4 |
| 20260830133049 | 76 | 135 | 2.0 | 7.0 | 0.00 | 0.00 | 0.00 | 90 | 1022.4 |
| 20260830132524 | 75 | 175 | 2.0 | 6.0 | 0.00 | 0.00 | 0.00 | 91 | 1022.4 |
| 20260830132024 | 75 | 133 | 2.0 | 4.0 | 0.00 | 0.00 | 0.00 | 91 | 1022.3 |
| 20260830131550 | 74 | 153 | 2.0 | 4.0 | 0.00 | 0.00 | 0.00 | 91 | 1022.3 |
| 20260830131025 | 74 | 172 | 1.0 | 4.0 | 0.00 | 0.00 | 0.00 | 92 | 1022.3 |
| 20260830130525 | 74 | 160 | 1.0 | 3.0 | 0.00 | 0.00 | 0.00 | 92 | 1022.3 |
| 20260830130055 | 73 | 183 | 1.0 | 3.0 | 0.00 | 0.00 | 0.00 | 92 | 1022.2 |
| 20260830125525 | 73 | 119 | 0.0 | 2.0 | 0.00 | 0.00 | 0.00 | 92 | 1022.1 |
| 20260830125025 | 73 | 0 | 0.0 | 2.0 | 0.00 | 0.00 | 0.00 | 92 | 1022.1 |
| 20260830124544 | 73 | 113 | 1.0 | 2.0 | 0.00 | 0.00 | 0.00 | 92 | 1022.0 |
| 20260830124026 | 72 | 126 | 1.0 | 2.0 | 0.00 | 0.00 | 0.00 | 92 | 1021.9 |
| 20260830123526 | 72 | 150 | 0.0 | 2.0 | 0.00 | 0.00 | 0.00 | 92 | 1021.9 |
| 20260830123055 | 72 | 169 | 1.0 | 2.0 | 0.00 | 0.00 | 0.00 | 92 | 1022.0 |
| 20260830122525 | 72 | 113 | 0.0 | 2.0 | 0.00 | 0.00 | 0.00 | 92 | 1022.0 |
| 20260830122025 | 71 | 131 | 0.0 | 2.0 | 0.00 | 0.00 | 0.00 | 92 | 1022.0 |
| 20260830121549 | 71 | 0 | 0.0 | 2.0 | 0.00 | 0.00 | 0.00 | 92 | 1021.9 |